Temperature
24 23 22 21 21 21 21 21 20 20 20 20 20 20 19 19 19 19 19 19 19 18 18 18 18 18 18 18 18 18 18 18 18 18 18 18 18 18 18 17 17 17 17
24 23 22 22 21 21 21 21 21 20 20 20 20 20 19 19 19 19 19 19 19 18 18 18 18 18 18 18 17 17 18 18 18 18 19 19 19 18 18 17 17 17 17
25 24 23 22 21 21 21 21 21 21 21 20 20 20 19 19 19 19 19 19 19 18 18 18 18 18 18 18 17 17 17 18 18 18 18 19 20 19 18 17 17 17 17
25 24 23 22 22 21 21 21 21 21 21 21 20 20 20 19 19 19 19 19 19 18 18 18 18 18 18 18 17 17 17 17 18 18 17 17 18 18 19 18 17 17 16
26 25 24 23 22 22 21 21 21 21 21 21 20 20 20 19 19 19 19 19 19 18 18 18 18 18 18 18 18 17 17 17 17 18 17 17 17 17 18 18 17 17 17
25 24 24 23 22 22 21 21 21 21 21 21 20 20 20 20 19 19 19 19 18 18 18 18 18 18 18 18 17 17 17 17 17 17 17 17 17 18 18 18 17 17 17
25 24 23 23 22 22 21 21 21 21 21 21 21 20 20 20 20 19 19 19 18 18 18 18 18 18 18 18 17 17 17 17 17 17 17 17 17 17 17 17 17 17 17
25 24 23 23 22 22 21 21 21 21 21 20 20 20 20 19 19 19 19 19 18 18 18 18 18 18 18 17 17 17 17 17 17 17 16 16 16 16 17 17 17 17 17
25 24 23 23 22 21 21 21 21 21 20 20 20 20 20 19 19 19 19 18 18 18 18 18 18 18 18 17 17 17 17 17 16 16 16 16 16 16 16 16 16 17 17
24 24 23 22 22 22 21 21 21 21 20 20 20 19 19 19 19 19 18 18 18 18 18 17 18 17 17 17 17 17 16 16 16 16 16 16 16 16 16 16 16 16 16
24 23 22 22 22 21 21 21 20 20 20 20 20 19 19 19 19 19 18 18 18 18 18 17 17 17 17 17 17 16 16 16 16 16 16 15 15 15 16 15 15 15 15
24 23 22 21 21 21 21 20 20 20 20 20 19 19 19 19 19 18 18 18 18 18 17 17 17 16 16 16 16 16 16 16 15 15 15 15 15 15 15 15 15 15 15
23 22 22 21 21 20 20 20 20 20 19 19 19 19 19 19 18 18 18 18 18 17 17 17 17 16 16 16 16 16 16 15 15 15 15 15 14 14 15 15 15 15 15
22 22 21 20 20 20 20 20 20 19 19 19 19 19 19 18 18 18 18 18 17 17 17 17 17 16 16 16 16 15 15 15 15 15 15 14 14 14 14 14 14 14 14
21 21 20 20 19 19 19 19 19 19 19 19 19 19 19 18 18 18 17 17 17 17 16 16 16 16 16 16 15 15 15 15 15 15 14 14 14 14 14 14 14 14 14
21 20 20 19 19 19 19 19 19 19 19 19 18 18 18 18 18 17 17 17 17 16 16 16 16 16 16 16 16 15 15 15 14 14 14 14 14 14 14 14 14 14 14
21 20 19 19 19 19 19 19 19 19 18 18 18 18 18 17 17 17 17 17 17 16 16 16 16 16 16 16 16 15 15 14 14 14 14 14 14 14 14 14 14 14 14
20 20 19 19 19 19 18 18 18 18 18 17 17 17 17 17 17 17 16 16 16 16 16 16 16 15 15 15 15 15 15 14 14 14 14 14 14 14 14 13 13 13 13
20 19 19 19 19 18 18 18 18 18 17 17 17 17 17 16 16 16 16 16 16 16 15 15 15 15 15 15 15 15 14 14 14 14 13 13 13 13 13 13 13 13 13
19 18 18 18 18 18 18 17 17 17 17 17 16 16 16 16 16 16 16 16 15 15 15 15 15 15 15 15 15 14 14 14 13 13 13 13 13 13 13 13 13 12 12
18 18 18 18 17 17 17 17 16 16 16 16 16 16 16 15 15 15 15 15 15 15 14 14 14 14 14 14 14 14 14 13 13 13 13 13 13 13 13 13 12 12 12
17 17 17 17 17 16 16 16 16 16 16 16 16 15 15 15 15 15 15 15 14 14 14 14 14 14 14 14 14 14 14 14 13 13 13 13 13 13 13 13 12 12 12
17 17 16 16 16 16 16 16 16 15 15 15 15 15 15 15 15 15 14 14 14 14 14 13 13 13 13 13 13 13 13 13 13 13 13 13 13 13 12 12 12 12 12
16 16 16 16 15 15 15 15 15 15 15 15 15 15 15 15 14 14 14 14 14 13 13 13 13 13 13 13 13 13 13 13 13 12 12 12 12 12 12 12 12 12 12
15 15 15 15 15 15 15 15 14 14 14 14 14 14 14 14 13 13 13 13 13 13 13 13 13 12 12 12 12 12 12 12 12 12 12 12 12 12 12 12 12 12 12
15 15 15 15 14 14 14 14 14 14 14 14 14 13 13 13 13 13 13 13 13 13 13 13 12 12 12 12 12 12 12 12 12 11 11 12 12 12 12 12 12 12 11
Wind_Speed
9 10 10 9 9 8 8 8 7 7 6 5 4 4 3 2 2 1 1 1 1 1 1 1 1 1 1 1 1 1 2 1 1 2 1 2 2 2 1 1 1 3 3
10 10 11 10 10 10 9 8 8 7 7 5 4 3 2 2 2 1 1 2 1 2 2 2 2 1 0 1 1 1 1 1 1 2 2 2 3 2 2 2 2 2 2
10 11 11 11 11 11 10 9 8 8 7 6 5 4 3 3 3 2 2 2 2 2 2 1 2 1 2 1 1 2 2 1 1 1 2 2 0 1 2 1 1 1 1
10 11 12 12 12 11 10 10 9 8 7 7 6 6 4 3 3 2 2 3 3 3 3 2 2 2 1 1 2 1 2 3 2 1 1 2 2 2 1 2 2 1 2
10 11 11 12 11 11 10 9 9 8 7 7 7 6 5 4 3 3 3 3 3 3 3 3 2 2 2 1 1 1 3 2 3 2 1 2 2 3 3 2 2 2 2
8 9 10 9 10 10 10 10 9 8 8 8 7 7 6 5 4 3 3 3 3 3 3 3 2 3 2 2 2 2 3 2 2 3 2 2 2 3 3 3 3 2 1
8 9 10 10 9 10 10 9 10 9 8 8 8 7 7 6 6 5 4 3 3 3 3 3 3 2 2 3 3 3 3 3 3 3 3 3 3 3 4 4 4 3 2
8 9 9 9 9 9 9 9 9 8 8 8 8 7 7 6 5 5 4 3 3 2 2 4 4 4 4 4 3 3 3 3 3 3 3 3 3 4 4 4 4 4 3
7 7 7 8 8 8 8 8 8 8 8 8 7 7 7 6 4 4 5 4 3 3 3 4 4 4 4 3 3 2 2 2 2 2 2 3 3 3 4 4 4 5 5
7 7 7 7 7 7 7 7 7 7 7 7 7 6 6 6 5 5 4 4 3 3 3 4 3 3 3 3 3 2 1 2 2 2 2 3 3 3 3 4 4 5 5
7 7 7 6 7 7 7 6 6 6 6 6 6 5 5 6 6 5 5 5 4 4 4 4 4 3 3 3 3 3 3 3 3 3 2 2 4 4 3 3 4 4 5
6 6 6 6 6 6 6 6 5 5 5 5 5 6 5 5 6 6 6 5 5 5 5 5 5 4 4 4 4 4 4 4 3 3 2 3 2 3 3 3 4 3 4
5 6 6 5 5 5 4 5 5 5 5 5 6 5 5 5 5 5 5 5 5 5 5 5 5 4 4 5 4 4 4 4 4 3 3 3 3 3 2 3 3 3 3
5 5 5 5 4 4 4 4 4 4 5 5 5 5 5 5 4 5 5 5 5 5 5 4 4 5 5 5 5 4 4 4 4 3 3 3 3 3 3 3 3 3 3
5 4 4 4 4 4 4 5 4 4 5 5 5 4 4 4 4 5 5 5 5 5 5 4 5 5 5 5 4 5 5 4 4 4 4 4 2 2 3 3 3 3 4
4 4 3 3 3 4 4 5 5 5 5 5 5 4 4 4 4 5 5 5 5 4 4 5 5 5 4 4 3 4 4 4 5 4 4 4 3 3 3 2 3 4 5
4 4 4 3 4 4 5 5 5 5 5 5 4 4 4 4 4 4 4 5 5 4 4 5 5 5 4 4 5 5 5 5 4 4 4 4 2 3 3 4 6 5 5
3 3 3 3 3 4 4 4 4 5 5 5 4 4 5 4 4 4 4 4 4 4 5 5 5 5 4 5 6 6 7 6 5 5 5 5 4 3 3 4 4 5 4
2 2 2 2 2 3 4 4 4 4 4 4 4 4 4 4 4 5 5 4 4 4 5 5 5 5 4 5 6 6 6 5 6 6 5 5 5 2 3 5 5 4 4
3 2 2 3 2 2 3 4 3 3 3 3 3 4 4 4 4 4 4 4 4 5 5 4 4 4 4 5 6 7 6 5 5 5 6 4 4 3 4 6 6 6 5
4 4 3 3 2 2 2 2 2 2 2 3 3 3 4 4 4 3 4 4 4 4 4 4 4 4 4 5 6 7 6 5 6 5 5 4 6 5 5 7 6 5 5
5 4 4 3 3 2 2 2 1 1 1 2 3 3 3 4 3 3 4 4 4 5 4 4 4 4 4 4 5 7 8 7 7 6 5 3 6 7 7 6 4 4 6
4 4 4 4 4 3 2 1 1 1 1 2 2 3 3 3 3 4 4 4 4 4 3 3 4 4 4 4 6 8 8 8 7 5 3 2 6 7 7 8 7 6 6
4 4 4 3 3 3 2 2 1 1 1 2 2 3 3 3 3 3 4 3 4 4 4 4 5 4 4 4 3 4 5 7 7 6 4 5 7 7 5 5 7 7 6
3 3 3 2 2 2 2 2 2 1 0 1 2 3 3 2 2 3 2 3 3 2 4 4 4 5 5 2 2 3 4 4 4 4 4 5 5 5 6 5 5 6 6
3 2 2 2 2 2 2 2 2 1 1 1 1 2 2 2 2 2 2 0 2 2 2 3 4 3 1 1 2 3 4 4 4 5 6 6 6 6 6 5 5 5 6
Wind_Direction
191 188 190 190 189 189 189 191 192 186 190 193 197 191 189 192 188 197 180 206 234 207 237 263 176 264 258 266 224 211 178 205 239 257 235 186 176 156 163 194 181 169 178
191 190 193 195 196 193 194 193 193 191 194 190 196 199 200 200 199 187 162 216 214 228 209 242 244 236 263 218 233 233 262 222 207 261 270 225 167 164 142 160 177 180 183
198 193 195 198 200 199 197 197 195 192 194 192 193 194 192 206 192 186 178 199 209 213 244 236 265 248 244 201 234 228 235 242 218 258 284 287 335 136 158 155 154 177 197
201 198 196 198 201 200 197 194 193 193 190 193 201 204 206 210 210 204 179 177 196 207 209 215 225 248 262 211 240 193 232 242 248 206 250 288 323 282 207 194 170 193 222
202 198 196 197 198 194 191 188 189 191 190 195 199 205 213 214 206 195 181 196 185 201 211 206 206 219 242 251 277 245 251 246 261 264 238 237 229 249 269 265 245 224 216
191 190 190 189 191 190 189 187 186 190 190 196 201 207 213 216 211 202 196 202 198 199 195 200 206 219 237 231 237 236 228 257 277 282 277 266 265 260 262 267 261 261 247
181 181 183 184 187 189 190 188 187 189 190 195 201 206 213 211 209 214 210 222 221 205 193 203 203 216 218 226 232 227 246 239 243 253 265 271 274 279 278 279 275 274 261
177 179 180 182 182 183 186 185 187 189 189 194 199 205 209 213 211 212 226 215 231 232 198 203 206 212 219 226 225 237 233 232 237 248 265 272 270 271 270 270 275 272 262
169 171 172 174 174 178 183 186 186 187 191 194 197 202 207 216 219 218 222 222 218 219 203 207 207 209 212 223 229 239 260 249 248 250 249 267 274 264 270 267 265 271 276
163 160 161 165 167 172 177 182 184 188 194 198 203 200 205 212 220 229 229 233 232 230 214 205 203 204 203 194 203 206 208 224 243 266 298 290 286 283 265 260 261 265 270
160 156 155 156 159 166 170 172 173 180 188 196 201 204 205 210 213 216 218 219 222 221 220 218 215 202 198 196 197 213 212 217 225 242 241 262 291 284 276 267 262 259 259
154 152 150 151 160 165 167 167 173 177 186 195 195 200 200 206 212 209 208 209 209 214 216 216 213 210 205 208 208 218 223 224 227 237 244 255 264 270 279 282 275 271 265
150 152 153 156 161 163 165 168 178 181 189 193 191 192 198 203 210 210 207 205 201 204 209 210 212 212 213 215 218 220 229 228 230 233 239 251 263 270 275 273 274 270 261
150 157 159 162 164 168 169 175 184 186 188 187 186 195 202 205 206 208 209 205 201 202 210 213 213 212 216 218 223 223 226 228 231 237 244 252 261 265 264 254 259 267 270
158 160 163 168 174 179 183 184 187 191 195 190 189 196 203 205 205 207 210 206 210 212 207 209 209 211 215 215 217 226 224 223 231 238 243 246 253 300 292 288 281 268 264
171 171 170 173 185 193 194 192 193 197 194 193 198 192 193 194 199 204 208 205 207 214 215 214 213 216 217 158 191 235 232 226 230 239 244 240 220 209 213 265 296 294 269
177 177 178 186 197 203 200 199 199 197 195 198 200 191 190 186 193 203 201 205 207 209 213 220 221 224 211 172 186 219 236 235 236 238 244 250 229 205 227 216 220 241 255
184 191 189 184 190 192 193 199 191 191 199 202 201 197 195 192 190 196 204 209 209 211 215 219 223 227 213 179 192 210 225 239 239 238 237 242 246 237 244 247 240 241 239
168 181 175 161 167 168 174 181 182 183 193 200 203 203 200 202 202 203 208 210 209 211 219 220 223 226 216 183 193 212 227 231 240 241 238 239 235 220 246 245 245 247 243
112 108 109 115 114 127 163 173 179 183 196 206 209 207 204 208 209 208 210 208 210 212 218 213 220 228 230 192 194 212 232 233 237 234 234 220 231 210 228 241 249 251 254
107 106 102 104 104 118 144 166 177 195 205 206 203 195 198 205 205 207 212 213 214 216 220 217 222 229 235 204 192 208 231 242 246 245 239 222 179 209 228 250 257 260 266
103 100 99 87 79 93 122 130 169 244 222 207 205 196 200 210 192 200 210 214 218 217 216 221 235 235 234 233 207 206 227 254 249 251 250 224 178 207 227 238 242 250 259
97 93 93 86 73 66 75 78 16 309 250 224 213 206 209 215 209 203 204 205 206 222 223 226 239 247 242 223 199 206 219 238 250 260 284 235 195 208 221 221 224 232 246
94 95 95 89 80 69 51 28 2 330 268 246 231 216 208 213 214 224 214 214 219 227 235 241 244 244 243 245 238 235 227 224 237 250 227 198 201 222 230 215 220 234 244
99 96 95 87 72 65 47 21 9 352 312 261 253 248 230 219 226 234 252 243 244 248 253 256 254 250 247 250 311 271 251 249 251 254 241 233 222 224 226 230 234 238 238
113 106 99 82 66 53 40 14 359 352 332 312 296 273 256 236 234 235 257 247 244 183 223 267 275 272 280 214 225 256 273 258 236 238 237 234 234 237 236 236 239 243 248
Height
1527 1529 1531 1533 1534 1535 1536 1537 1539 1540 1541 1542 1544 1544 1545 1545 1546 1546 1546 1546 1546 1546 1545 1546 1546 1546 1546 1546 1546 1546 1546 1547 1547 1548 1548 1547 1547 1547 1546 1547 1547 1547 1547
1524 1527 1529 1530 1532 1533 1534 1535 1537 1538 1540 1541 1542 1543 1544 1545 1545 1545 1545 1545 1545 1545 1546 1545 1546 1545 1545 1545 1545 1544 1546 1547 1547 1547 1547 1547 1548 1546 1547 1546 1546 1546 1546
1520 1523 1526 1527 1529 1531 1532 1534 1535 1537 1538 1540 1541 1542 1543 1544 1544 1544 1544 1544 1544 1544 1544 1545 1545 1544 1545 1545 1544 1544 1544 1546 1546 1546 1547 1546 1545 1546 1546 1546 1545 1545 1545
1517 1520 1522 1524 1526 1528 1530 1532 1533 1535 1536 1538 1539 1540 1542 1542 1543 1543 1543 1543 1543 1543 1543 1543 1543 1543 1544 1543 1543 1543 1543 1544 1545 1545 1544 1545 1545 1545 1545 1546 1545 1544 1543
1513 1516 1519 1521 1524 1526 1528 1530 1531 1533 1534 1536 1537 1538 1540 1541 1542 1542 1542 1542 1542 1542 1542 1542 1542 1542 1542 1542 1542 1542 1542 1543 1543 1544 1544 1544 1544 1544 1544 1544 1544 1543 1543
1510 1513 1516 1519 1522 1524 1526 1528 1529 1531 1532 1534 1535 1536 1537 1539 1540 1540 1541 1541 1541 1541 1541 1541 1540 1541 1541 1541 1541 1540 1540 1541 1541 1541 1542 1542 1542 1542 1542 1542 1542 1541 1541
1508 1510 1513 1516 1519 1521 1524 1526 1527 1528 1530 1531 1533 1534 1535 1536 1537 1538 1539 1540 1540 1540 1539 1540 1539 1540 1539 1539 1539 1539 1539 1539 1539 1539 1539 1540 1540 1541 1541 1541 1540 1540 1539
1505 1508 1511 1513 1516 1519 1521 1523 1524 1525 1527 1529 1530 1532 1533 1535 1536 1536 1537 1537 1538 1538 1538 1538 1537 1537 1537 1538 1537 1538 1538 1537 1537 1537 1537 1538 1538 1538 1539 1539 1539 1538 1537
1504 1506 1509 1512 1514 1516 1518 1520 1522 1523 1525 1527 1528 1529 1531 1532 1533 1534 1534 1535 1535 1536 1535 1535 1535 1535 1535 1535 1535 1536 1535 1535 1536 1536 1536 1536 1536 1536 1536 1536 1536 1537 1535
1503 1505 1508 1510 1512 1514 1516 1518 1520 1521 1523 1524 1526 1528 1528 1529 1530 1531 1532 1533 1533 1534 1534 1533 1533 1533 1533 1533 1533 1534 1534 1533 1533 1533 1533 1533 1534 1534 1533 1533 1533 1534 1534
1502 1504 1506 1508 1510 1512 1514 1516 1517 1519 1520 1522 1523 1525 1526 1526 1527 1528 1529 1529 1530 1530 1530 1531 1531 1531 1531 1531 1531 1532 1531 1531 1531 1531 1531 1530 1530 1531 1531 1531 1531 1531 1531
1501 1503 1505 1507 1509 1511 1513 1513 1515 1516 1517 1519 1520 1522 1522 1523 1524 1525 1525 1525 1526 1527 1527 1528 1528 1528 1529 1529 1529 1529 1529 1529 1528 1528 1528 1528 1528 1527 1528 1528 1528 1528 1528
1500 1502 1504 1506 1508 1509 1510 1511 1513 1513 1515 1516 1518 1518 1519 1520 1521 1521 1522 1523 1523 1524 1524 1525 1525 1526 1526 1526 1526 1526 1526 1526 1526 1526 1526 1526 1526 1525 1525 1525 1526 1526 1526
1499 1500 1502 1504 1505 1506 1508 1509 1510 1512 1513 1514 1514 1516 1516 1517 1518 1518 1519 1520 1520 1521 1522 1522 1523 1523 1523 1523 1523 1523 1523 1523 1523 1523 1523 1523 1523 1523 1523 1523 1523 1523 1524
1497 1499 1500 1502 1503 1504 1505 1506 1507 1508 1510 1510 1512 1512 1513 1514 1515 1515 1516 1517 1517 1518 1519 1519 1520 1520 1520 1520 1520 1520 1521 1520 1521 1521 1521 1520 1520 1520 1520 1521 1521 1521 1521
1496 1498 1499 1499 1500 1501 1501 1503 1504 1505 1506 1507 1508 1509 1510 1511 1511 1512 1513 1513 1514 1515 1516 1516 1516 1516 1517 1516 1517 1517 1518 1518 1518 1518 1518 1518 1518 1517 1517 1518 1518 1518 1519
1495 1496 1496 1497 1498 1498 1499 1500 1501 1502 1503 1504 1505 1506 1507 1508 1508 1509 1510 1510 1511 1511 1512 1513 1513 1513 1513 1513 1514 1514 1515 1515 1515 1515 1515 1516 1516 1515 1515 1515 1515 1515 1515
1493 1494 1495 1495 1496 1497 1497 1498 1499 1500 1501 1502 1502 1503 1504 1504 1505 1505 1506 1507 1507 1508 1508 1509 1509 1510 1510 1510 1510 1511 1511 1512 1512 1512 1512 1512 1512 1512 1513 1513 1513 1513 1513
1491 1492 1493 1494 1494 1495 1495 1496 1497 1497 1498 1499 1499 1500 1501 1501 1502 1502 1503 1504 1504 1505 1505 1506 1506 1506 1507 1507 1507 1508 1508 1508 1508 1509 1509 1508 1508 1509 1509 1510 1510 1510 1510
1490 1490 1491 1492 1492 1492 1493 1494 1494 1495 1495 1496 1497 1497 1498 1498 1499 1499 1500 1501 1501 1502 1502 1502 1503 1503 1503 1503 1504 1504 1505 1505 1505 1505 1505 1505 1505 1506 1506 1507 1507 1507 1507
1489 1489 1489 1490 1490 1490 1491 1492 1492 1492 1493 1494 1494 1495 1495 1495 1496 1497 1497 1497 1498 1498 1498 1499 1499 1499 1500 1500 1500 1500 1500 1501 1502 1503 1502 1502 1502 1502 1502 1503 1504 1504 1504
1487 1488 1489 1489 1489 1489 1490 1490 1490 1490 1491 1491 1491 1492 1492 1493 1493 1493 1494 1494 1494 1495 1494 1495 1495 1496 1496 1496 1496 1496 1496 1497 1498 1498 1499 1499 1498 1498 1499 1499 1499 1500 1500
1487 1487 1488 1488 1488 1488 1488 1488 1488 1488 1488 1488 1488 1488 1489 1490 1490 1490 1490 1490 1490 1492 1491 1492 1492 1493 1492 1492 1492 1492 1492 1493 1493 1494 1494 1494 1494 1494 1495 1495 1496 1496 1497
1486 1486 1487 1487 1487 1487 1487 1487 1487 1486 1486 1485 1485 1486 1486 1486 1487 1487 1488 1488 1488 1488 1488 1488 1489 1489 1488 1488 1488 1487 1487 1488 1489 1489 1490 1490 1490 1490 1491 1492 1492 1493 1493
1486 1486 1487 1487 1487 1487 1486 1486 1485 1484 1483 1483 1483 1484 1484 1484 1484 1484 1484 1485 1485 1485 1485 1485 1485 1484 1485 1484 1484 1484 1484 1484 1485 1485 1485 1486 1486 1487 1487 1488 1488 1489 1489
1486 1486 1486 1487 1486 1485 1485 1485 1484 1483 1482 1481 1481 1482 1482 1481 1481 1481 1482 1481 1482 1481 1481 1481 1481 1481 1481 1481 1480 1480 1480 1480 1481 1481 1481 1482 1483 1483 1484 1484 1484 1484 1485